Location: Valdosta
(30.8330°N, 83.2790°W)
Time: 11:52:59
(UTC-04:00)

Amateur Radio Satellites - All Passes

Search period start: 04 August 2015 11:22
Search period end: 05 August 2015 11:22
Location: Valdosta, 30.8330°N, 83.2790°W

Satellite Date Start Highest point End Downlink Frequencies (MHz)
Time Altitude Azimuth
QB50P2 04 Aug 11:26:28 11:30:02 28° 73° (ENE) 11:33:40 145.880/145.840
HUMSAT D 04 Aug 11:36:19 11:40:28 44° 99° (E) 11:44:36 437.325/437.525
AAUSAT CUBESAT 2 04 Aug 11:38:22 11:40:46 15° 289° (WNW) 11:42:57 437.432
FUNcube-1 04 Aug 11:38:36 11:43:09 64° 283° (WNW) 11:47:40 145.935
AUBIESAT-1 04 Aug 11:39:43 11:41:39 13° 265° (W) 11:43:24 437.475
ESTCUBE 1 04 Aug 11:40:55 11:41:56 11° 91° (E) 11:43:17 437.505/2401.250
Cosmos 2491 04 Aug 11:43:44 11:50:24 26° 86° (E) 11:57:23 435.465 / 435.565
Oscar 11 04 Aug 11:45:51 11:49:38 29° 287° (WNW) 11:53:21 145.826/435.025
DUCHIFAT 1 04 Aug 11:46:25 11:50:24 46° 75° (ENE) 11:54:26 145.980
UKube-1 04 Aug 11:47:21 11:51:13 32° 98° (E) 11:55:08 .
UNISAT 6 04 Aug 11:47:26 11:51:40 52° 261° (W) 11:56:00 437.425
UWE-3 04 Aug 11:50:44 11:54:58 34° 286° (WNW) 11:59:08 435.000/436.395/437.385
NANOSAT C BR1 04 Aug 11:52:06 11:56:12 57° 76° (ENE) 12:00:19 145.865
QB50P1 04 Aug 11:52:22 11:56:28 59° 76° (ENE) 12:00:36 145.935-145.965
O/OREOS (USA 219) 04 Aug 11:58:49 12:03:25 77° 71° (ENE) 12:08:00 437.305
50 SAT 04 Aug 12:03:04 12:06:46 38° 98° (E) 12:10:28 437.505
AISAT 04 Aug 12:10:53 12:15:04 41° 99° (E) 12:19:16 437.250
CUBEBUG 1 04 Aug 12:14:19 12:17:45 23° 96° (E) 12:21:17 437.445
CUBEBUG 2 04 Aug 12:15:04 12:17:54 15° 290° (WNW) 12:20:31 437.445
DX 1 04 Aug 12:20:40 12:25:01 82° 283° (WNW) 12:29:21 434.975-435.025
TIGRISAT 04 Aug 12:30:53 12:33:47 17° 267° (W) 12:36:33 435.000
ANTELSAT 04 Aug 12:34:41 12:37:14 15° 268° (W) 12:39:36 437.575/2403.000
DELFI C3 04 Aug 12:35:56 12:36:45 10° 290° (WNW) 12:37:19 145.870
POLYITAN 1 04 Aug 12:37:44 12:41:34 34° 262° (W) 12:45:23 437.675
BUGSAT 1 04 Aug 12:37:54 12:41:53 60° 259° (W) 12:45:52 437.445
SPROUT 04 Aug 12:38:16 12:39:27 11° 91° (E) 12:40:56 437.525
AIST 1 04 Aug 12:42:44 12:47:04 66° 277° (W) 12:51:22
VELOX 1 04 Aug 12:48:38 12:53:01 69° 284° (WNW) 12:57:25 145.980
POPSAT HIP 1 04 Aug 12:53:53 12:57:14 22° 265° (W) 13:00:30 437.405
QB50P2 04 Aug 13:03:07 13:05:57 17° 266° (W) 13:08:39 145.880/145.840
YUBILEINY 04 Aug 13:10:35 13:19:03 51° 269° (W) 13:27:23 435.215
HUMSAT D 04 Aug 13:14:00 13:15:50 12° 290° (WNW) 13:17:26 437.325/437.525
ESTCUBE 1 04 Aug 13:14:49 13:19:08 48° 285° (WNW) 13:23:26 437.505/2401.250
UKube-1 04 Aug 13:24:23 13:27:07 16° 290° (WNW) 13:29:40 .
Cosmos 2491 04 Aug 13:38:19 13:46:51 53° 281° (W) 13:55:19 435.465 / 435.565
50 SAT 04 Aug 13:39:35 13:41:00 11° 290° (WNW) 13:42:12 437.505
Cosmos 2504 04 Aug 13:48:46 13:56:19 35° 76° (ENE) 14:04:04 435.465 / 435.565
AISAT 04 Aug 13:49:03 13:51:20 14° 290° (WNW) 13:53:23 437.250
Oscar 19 04 Aug 13:49:31 13:54:13 40° 73° (ENE) 13:59:01 437.125/150
CUBEBUG 1 04 Aug 13:50:38 13:54:01 22° 288° (WNW) 13:57:18 437.445
TISAT 1 04 Aug 14:08:42 14:12:56 86° 283° (WNW) 14:17:10 437.305
SPROUT 04 Aug 14:11:41 14:15:47 44° 285° (WNW) 14:19:52 437.525
BEESAT 04 Aug 14:51:37 14:56:02 38° 98° (E) 15:00:27 436.000
CUSAT 1 04 Aug 14:57:26 15:01:29 24° 79° (E) 15:06:35 437.405
DANDE 04 Aug 15:04:48 15:07:35 16° 79° (ENE) 15:11:07 436.750
JAS-2 04 Aug 15:09:52 15:14:51 28° 67° (ENE) 15:20:33 435.910
SWISSCUBE 04 Aug 15:12:29 15:17:15 75° 102° (ESE) 15:21:59 437.505
Gurwin Techsat 1B 04 Aug 15:17:42 15:23:01 89° 87° (E) 15:28:22 435.225
ITAMSAT 1 04 Aug 15:18:11 15:23:23 80° 78° (ENE) 15:28:38 435.822/435.867
Oscar 19 04 Aug 15:30:17 15:33:47 18° 267° (W) 15:37:04 437.125/150
ITUPSAT 1 04 Aug 15:35:21 15:40:07 68° 284° (WNW) 15:44:49 437.325
Cosmos 2504 04 Aug 15:40:39 15:48:35 42° 271° (W) 15:56:22 435.465 / 435.565
VERMONT LUNAR 04 Aug 15:41:05 15:43:15 18° 142° (SE) 15:45:31 437.305
STARS 04 Aug 15:46:17 15:47:37 11° 92° (E) 15:49:14 437.465
AO-7 04 Aug 15:53:24 16:00:55 40° 66° (ENE) 16:08:34 29.400- 29.500
HORYU 2 04 Aug 16:19:43 16:23:49 39° 74° (ENE) 16:28:00 437.375
KKS-1 04 Aug 16:20:00 16:24:24 57° 100° (E) 16:28:48 437.445
BEESAT 04 Aug 16:30:28 16:33:36 17° 291° (WNW) 16:36:32 436.000
CUSAT 1 04 Aug 16:39:19 16:43:56 33° 263° (W) 16:49:38 437.405
DANDE 04 Aug 16:46:10 16:50:32 41° 263° (W) 16:56:13 436.750
JAS-2 04 Aug 16:54:08 16:59:42 38° 265° (W) 17:05:54 435.910
SO-50 04 Aug 17:14:17 17:15:04 10° 45° (NE) 17:16:08 436.795
VERMONT LUNAR 04 Aug 17:16:41 17:19:46 52° 334° (NNW) 17:22:53 437.305
STARS 04 Aug 17:20:05 17:24:20 46° 285° (WNW) 17:28:34 437.465
MOZHAYETS 4 04 Aug 17:38:04 17:42:30 47° 99° (E) 17:46:55
AO-7 04 Aug 17:46:01 17:53:41 38° 261° (W) 18:01:15 29.400- 29.500
GONETS M04 04 Aug 17:52:09 18:00:51 69° 82° (E) 18:09:35
PCSat 04 Aug 17:55:03 17:59:07 22° 55° (NE) 18:03:20 145.827
HORYU 2 04 Aug 17:58:17 18:00:40 14° 268° (W) 18:02:49 437.375
KKS-1 04 Aug 17:59:54 18:00:37 10° 292° (WNW) 18:01:00 437.445
Cubesat XI-IV 04 Aug 18:00:40 18:03:48 16° 68° (ENE) 18:07:10 437.490
PHONESAT 2.4 04 Aug 18:32:40 18:36:08 68° 149° (SSE) 18:39:37 2401.200-2431.200
Cosmos 2499 04 Aug 18:49:47 18:57:50 39° 76° (ENE) 19:05:57 435.465 / 435.565
SO-50 04 Aug 18:51:25 18:56:22 86° 239° (WSW) 19:01:08 436.795
CUTE-I 04 Aug 18:53:03 18:58:15 56° 75° (ENE) 19:03:31 437.470
VERMONT LUNAR 04 Aug 18:54:44 18:56:55 17° 350° (N) 18:59:04 437.305
MOZHAYETS 4 04 Aug 19:17:09 19:19:21 13° 291° (WNW) 19:21:17
ISS 04 Aug 19:27:41 19:30:46 43° 131° (SE) 19:33:53 145.825
PCSat 04 Aug 19:37:39 19:42:43 40° 250° (WSW) 19:47:43 145.827
Cubesat XI-IV 04 Aug 19:38:20 19:43:32 50° 260° (W) 19:48:44 437.490
CUBESAT XI-V 04 Aug 19:42:44 19:47:21 89° 101° (E) 19:51:56 437.345
GONETS M04 04 Aug 19:51:05 19:57:02 19° 275° (W) 20:02:28
STRAND 1 04 Aug 20:09:05 20:13:53 43° 99° (E) 20:18:43 437.568
PHONESAT 2.4 04 Aug 20:11:18 20:14:18 26° 344° (NNW) 20:17:18 2401.200-2431.200
DOVE 4 04 Aug 20:12:33 20:12:49 10° 69° (ENE) 20:13:21 437.250
VERMONT LUNAR 04 Aug 20:32:24 20:34:23 15° 7° (N) 20:36:22 437.305
SEEDS 04 Aug 20:32:48 20:34:19 12° 70° (ENE) 20:36:04 437.485
CUTE-I 04 Aug 20:36:00 20:38:44 13° 269° (W) 20:41:08 437.470
GOMX 1 04 Aug 20:39:32 20:43:31 43° 75° (ENE) 20:47:28 467.674
CUTE 1.7 + AOD 2 04 Aug 20:40:34 20:43:35 20° 72° (ENE) 20:46:44 437.475
PRISM 04 Aug 20:42:30 20:46:36 89° 102° (ESE) 20:50:41 437.425
Cosmos 2499 04 Aug 20:42:53 20:50:57 39° 271° (W) 20:58:46 435.465 / 435.565
BRITE-PL 04 Aug 20:48:39 20:53:04 73° 259° (W) 20:57:15 437.365/2234.400
CANX-2 04 Aug 20:48:56 20:52:33 28° 73° (ENE) 20:56:15 2200.000
AAUSAT CUBESAT 2 04 Aug 20:49:04 20:50:34 12° 70° (ENE) 20:52:18 437.432
HO-68 04 Aug 20:59:24 21:06:17 55° 71° (ENE) 21:13:14 435.675
ISS 04 Aug 21:05:29 21:07:23 14° 326° (NW) 21:09:13 145.825
RS-15 04 Aug 21:18:10 21:28:53 69° 113° (ESE) 21:39:56 29.354- 29.394
CINEMA 3 04 Aug 21:26:17 21:30:02 35° 74° (ENE) 21:33:53 145.822/145.860
CUBEBUG 2 04 Aug 21:31:24 21:34:04 17° 71° (ENE) 21:36:55 437.445
DELFI C3 04 Aug 21:41:36 21:43:31 14° 71° (ENE) 21:45:40 145.870
COMPASS 1 04 Aug 21:43:44 21:47:56 74° 77° (ENE) 21:52:10 437.405
DOVE 4 04 Aug 21:46:15 21:50:15 45° 261° (W) 21:54:14 437.250
STRAND 1 04 Aug 21:49:27 21:52:48 17° 291° (WNW) 21:55:56 437.568
PHONESAT 2.4 04 Aug 21:50:39 21:52:59 16° 0° (N) 21:55:19 2401.200-2431.200
BEESAT 3 04 Aug 22:00:06 22:02:02 14° 110° (ESE) 22:04:10 437.485
SEEDS 04 Aug 22:05:43 22:09:46 43° 262° (W) 22:13:49 437.485
VERMONT LUNAR 04 Aug 22:08:37 22:11:37 38° 23° (NNE) 22:14:36 437.305
ZACube-1 04 Aug 22:09:37 22:13:11 28° 73° (ENE) 22:16:53 437.345
CUTE 1.7 + AOD 2 04 Aug 22:15:44 22:19:20 26° 264° (W) 22:22:54 437.475
AAUSAT CUBESAT 2 04 Aug 22:21:50 22:25:49 42° 261° (W) 22:29:49 437.432
HUMSAT D 04 Aug 22:24:05 22:26:27 16° 71° (ENE) 22:29:03 437.325/437.525
CANX-2 04 Aug 22:25:31 22:28:30 18° 267° (W) 22:31:21 2200.000
FUNcube-1 04 Aug 22:28:55 22:32:56 48° 75° (ENE) 22:37:05 145.935
Oscar 11 04 Aug 22:34:20 22:38:39 77° 259° (WSW) 22:43:01 145.826/435.025
UKube-1 04 Aug 22:38:17 22:40:34 15° 70° (ENE) 22:43:04 .
UWE-3 04 Aug 22:42:02 22:46:13 79° 260° (W) 22:50:30 435.000/436.395/437.385
50 SAT 04 Aug 22:44:27 22:44:54 10° 70° (ENE) 22:45:37 437.505
HO-68 04 Aug 22:48:59 22:54:24 22° 266° (W) 22:59:31 435.675
TIGRISAT 04 Aug 22:52:35 22:53:33 11° 90° (E) 22:54:53 435.000
ANTELSAT 04 Aug 22:55:20 22:57:15 13° 91° (E) 22:59:26 437.575/2403.000
AIST 1 04 Aug 22:56:41 22:59:22 17° 75° (ENE) 23:02:13
M-CUBED/EXP-1 PRIME 04 Aug 22:57:28 23:02:02 47° 103° (ESE) 23:06:22 437.505
BEESAT 2 04 Aug 23:01:45 23:05:46 61° 116° (ESE) 23:09:50 435.950
AISAT 04 Aug 23:04:13 23:07:17 20° 71° (ENE) 23:10:30 437.250
CINEMA 3 04 Aug 23:05:27 23:07:27 13° 268° (W) 23:09:13 145.822/145.860
CUBEBUG 2 04 Aug 23:06:55 23:10:33 28° 264° (W) 23:14:13 437.445
CUBEBUG 1 04 Aug 23:07:58 23:08:36 10° 69° (ENE) 23:09:33 437.445
DX 1 04 Aug 23:10:54 23:14:58 41° 74° (ENE) 23:19:03 434.975-435.025
DELFI C3 04 Aug 23:14:35 23:18:19 34° 262° (W) 23:22:01 145.870
AUBIESAT-1 04 Aug 23:22:43 23:27:24 80° 106° (ESE) 23:31:49 437.475
AIST 2 04 Aug 23:25:21 23:28:26 20° 111° (ESE) 23:31:39 435.215
PHONESAT 2.4 04 Aug 23:28:37 23:31:39 27° 17° (NNE) 23:34:42 2401.200-2431.200
RS-15 04 Aug 23:32:57 23:42:17 30° 315° (NW) 23:51:35 29.354- 29.394
BEESAT 3 04 Aug 23:35:55 23:39:41 36° 302° (WNW) 23:43:27 437.485
DUCHIFAT 1 04 Aug 23:38:32 23:39:55 12° 92° (E) 23:41:35 145.980
VELOX 1 04 Aug 23:40:38 23:44:55 51° 75° (ENE) 23:49:12 145.980
NANOSAT C BR1 04 Aug 23:43:47 23:46:02 14° 93° (E) 23:48:29 145.865
QB50P1 04 Aug 23:44:11 23:46:33 15° 93° (E) 23:49:07 145.935-145.965
UNISAT 6 04 Aug 23:44:31 23:49:05 49° 99° (E) 23:53:39 437.425
VERMONT LUNAR 04 Aug 23:45:31 23:48:14 26° 216° (SW) 23:50:55 437.305
ZACube-1 04 Aug 23:46:46 23:49:36 17° 267° (W) 23:52:18 437.345
Cosmos 2491 04 Aug 23:55:11 00:03:45 61° 81° (E) 00:12:22 435.465 / 435.565
HUMSAT D 04 Aug 23:58:15 00:01:57 31° 263° (W) 00:05:40 437.325/437.525
YUBILEINY 05 Aug 00:08:25 00:16:08 39° 89° (E) 00:24:04 435.215
ESTCUBE 1 05 Aug 00:08:31 00:13:03 77° 76° (ENE) 00:17:34 437.505/2401.250
UKube-1 05 Aug 00:12:26 00:16:26 36° 262° (W) 00:20:24 .
50 SAT 05 Aug 00:15:26 00:19:07 41° 261° (W) 00:22:50 437.505
BUGSAT 1 05 Aug 00:25:36 00:29:07 28° 97° (E) 00:32:44 437.445
TIGRISAT 05 Aug 00:26:03 00:30:41 55° 284° (WNW) 00:35:15 435.000
POLYITAN 1 05 Aug 00:27:58 00:32:11 56° 100° (E) 00:36:25 437.675
O/OREOS (USA 219) 05 Aug 00:28:07 00:30:52 17° 102° (ESE) 00:33:49 437.305
ANTELSAT 05 Aug 00:29:46 00:34:19 48° 285° (WNW) 00:38:49 437.575/2403.000
AIST 1 05 Aug 00:33:28 00:37:04 26° 269° (W) 00:40:35
M-CUBED/EXP-1 PRIME 05 Aug 00:33:37 00:36:23 15° 296° (WNW) 00:38:53 437.505
AISAT 05 Aug 00:39:54 00:43:43 27° 263° (W) 00:47:26 437.250
CUBEBUG 1 05 Aug 00:40:20 00:44:35 52° 260° (W) 00:48:49 437.445
POPSAT HIP 1 05 Aug 00:43:14 00:47:32 87° 101° (ESE) 00:51:49 437.405
BEESAT 2 05 Aug 00:43:52 00:44:16 10° 311° (NW) 00:44:25 435.950
DX 1 05 Aug 00:49:29 00:51:26 12° 268° (W) 00:53:07 434.975-435.025
QB50P2 05 Aug 00:52:03 00:56:19 69° 283° (WNW) 01:00:34 145.880/145.840
TISAT 1 05 Aug 00:55:37 00:59:19 32° 74° (ENE) 01:03:05 437.305
SPROUT 05 Aug 00:59:58 01:04:11 67° 77° (ENE) 01:08:26 437.525
AIST 2 05 Aug 01:03:12 01:06:51 27° 304° (NW) 01:10:29 435.215
PHONESAT 2.4 05 Aug 01:06:19 01:09:47 61° 212° (SSW) 01:13:13 2401.200-2431.200
DUCHIFAT 1 05 Aug 01:11:56 01:15:57 41° 286° (WNW) 01:19:57 145.980
NANOSAT C BR1 05 Aug 01:18:07 01:21:59 34° 286° (WNW) 01:25:49 145.865
QB50P1 05 Aug 01:18:40 01:22:31 33° 286° (WNW) 01:26:19 145.935-145.965
UNISAT 6 05 Aug 01:23:10 01:25:29 13° 291° (WNW) 01:27:30 437.425
JUGNU 05 Aug 01:44:23 01:48:31 19° 167° (SSE) 01:52:43 437.505
BEESAT 05 Aug 01:53:14 01:57:00 24° 71° (ENE) 02:00:53 436.000
Cosmos 2491 05 Aug 01:53:38 02:00:03 22° 275° (W) 02:06:03 435.465 / 435.565
BUGSAT 1 05 Aug 02:01:41 02:04:24 17° 288° (WNW) 02:07:00 437.445
YUBILEINY 05 Aug 02:05:02 02:12:58 37° 285° (WNW) 02:20:46 435.215
O/OREOS (USA 219) 05 Aug 02:06:03 02:10:04 31° 294° (WNW) 02:14:04 437.305
Oscar 19 05 Aug 02:07:05 02:11:02 23° 95° (E) 02:15:08 437.125/150
SWISSCUBE 05 Aug 02:13:36 02:18:08 45° 74° (ENE) 02:22:44 437.505
Cosmos 2504 05 Aug 02:13:55 02:19:22 25° 86° (E) 02:25:22 435.465 / 435.565
TISAT 1 05 Aug 02:32:49 02:35:13 14° 267° (W) 02:37:23 437.305
ITUPSAT 1 05 Aug 02:36:26 02:41:13 74° 77° (ENE) 02:46:02 437.325
KKS-1 05 Aug 03:13:19 03:16:56 26° 72° (ENE) 03:20:39 437.445
BEESAT 05 Aug 03:30:41 03:34:44 26° 264° (W) 03:38:43 436.000
JUGNU 05 Aug 03:32:02 03:37:03 28° 176° (S) 03:42:03 437.505
ISS 05 Aug 03:35:40 03:38:48 45° 43° (NE) 03:41:56 145.825
ITAMSAT 1 05 Aug 03:36:49 03:41:44 45° 99° (E) 03:46:40 435.822/435.867
Gurwin Techsat 1B 05 Aug 03:39:35 03:44:48 57° 100° (E) 03:50:02 435.225
SRMSAT 05 Aug 03:44:16 03:48:31 20° 168° (SSE) 03:52:50 437.500
Oscar 19 05 Aug 03:45:48 03:50:26 33° 288° (WNW) 03:54:59 437.125/150
SWISSCUBE 05 Aug 03:53:41 03:56:15 14° 268° (W) 03:58:33 437.505
CUSAT 1 05 Aug 04:01:50 04:03:56 19° 96° (E) 04:05:57 437.405
AO-7 05 Aug 04:03:07 04:07:32 16° 92° (E) 04:12:34 29.400- 29.500
Cosmos 2504 05 Aug 04:04:27 04:11:13 44° 282° (WNW) 04:18:21 435.465 / 435.565
JAS-2 05 Aug 04:08:31 04:15:56 46° 97° (E) 04:23:02 435.910
STARS 05 Aug 04:11:08 04:15:29 76° 77° (ENE) 04:19:51 437.465
DANDE 05 Aug 04:12:55 04:14:59 16° 98° (E) 04:16:56 436.750
RS-15 05 Aug 04:16:18 04:20:48 13° 26° (NNE) 04:26:02 29.354- 29.394
HORYU 2 05 Aug 04:18:23 04:19:56 12° 92° (E) 04:21:47 437.375
MOZHAYETS 4 05 Aug 04:35:04 04:38:44 24° 72° (ENE) 04:42:30
KKS-1 05 Aug 04:50:11 04:53:33 20° 265° (W) 04:56:48 437.445
GONETS M04 05 Aug 04:55:27 04:58:40 13° 83° (E) 05:02:40
ISS 05 Aug 05:14:21 05:14:57 10° 234° (SW) 05:15:23 145.825
ITAMSAT 1 05 Aug 05:17:34 05:20:56 17° 292° (WNW) 05:24:03 435.822/435.867
JUGNU 05 Aug 05:20:42 05:25:36 26° 186° (S) 05:30:27 437.505
Gurwin Techsat 1B 05 Aug 05:21:32 05:24:22 14° 292° (WNW) 05:26:55 435.225
SRMSAT 05 Aug 05:32:12 05:37:12 28° 177° (S) 05:42:11 437.500
HORYU 2 05 Aug 05:52:32 05:56:52 46° 286° (WNW) 06:01:08 437.375
AO-7 05 Aug 05:52:54 06:01:15 80° 287° (WNW) 06:09:31 29.400- 29.500
JAS-2 05 Aug 05:53:53 06:00:41 32° 292° (WNW) 06:07:03 435.910
MOZHAYETS 4 05 Aug 06:12:01 06:15:52 25° 265° (W) 06:19:38
RS-15 05 Aug 06:26:00 06:37:19 50° 54° (NE) 06:49:07 29.354- 29.394
CUBESAT XI-V 05 Aug 06:40:33 06:45:00 45° 75° (ENE) 06:49:28 437.345
GONETS M04 05 Aug 06:45:53 06:54:36 89° 276° (W) 07:03:21
JUGNU 05 Aug 07:10:29 07:14:06 16° 195° (SSW) 07:17:36 437.505
CUTE-I 05 Aug 07:16:01 07:20:49 35° 98° (E) 07:25:39 437.470
STRAND 1 05 Aug 07:19:41 07:24:17 36° 73° (ENE) 07:28:58 437.568
Cosmos 2499 05 Aug 07:20:26 07:26:38 31° 87° (E) 07:33:25 435.465 / 435.565
SRMSAT 05 Aug 07:21:06 07:25:53 25° 187° (S) 07:30:38 437.500
PRISM 05 Aug 07:27:17 07:30:55 30° 73° (ENE) 07:34:36 437.425
AO-7 05 Aug 07:48:59 07:52:59 14° 303° (WNW) 07:56:25 29.400- 29.500
BEESAT 3 05 Aug 07:59:38 08:02:50 23° 55° (NE) 08:06:04 437.485
Cubesat XI-IV 05 Aug 08:01:03 08:06:23 78° 284° (WNW) 08:11:41 437.490
CUBESAT XI-V 05 Aug 08:20:25 08:22:42 13° 269° (W) 08:24:42 437.345
PCSat 05 Aug 08:30:12 08:35:28 58° 112° (ESE) 08:40:48 145.827
HO-68 05 Aug 08:36:35 08:38:52 12° 90° (E) 08:41:47 435.675
RS-15 05 Aug 08:38:42 08:49:47 44° 251° (WSW) 09:00:50 29.354- 29.394
GOMX 1 05 Aug 08:46:10 08:49:51 23° 96° (E) 08:53:52 467.674
GONETS M04 05 Aug 08:48:39 08:52:51 13° 295° (WNW) 08:56:18
CUTE-I 05 Aug 08:56:36 09:00:42 22° 290° (WNW) 09:04:39 437.470
BRITE-PL 05 Aug 08:57:41 09:02:13 53° 100° (E) 09:07:07 437.365/2234.400
STRAND 1 05 Aug 08:59:45 09:03:36 20° 266° (W) 09:07:16 437.568
SO-50 05 Aug 09:00:09 09:04:50 73° 299° (WNW) 09:09:41 436.795
BEESAT 2 05 Aug 09:03:36 09:07:39 78° 244° (WSW) 09:11:37 435.950
PRISM 05 Aug 09:03:44 09:06:25 16° 266° (W) 09:08:55 437.425
SRMSAT 05 Aug 09:11:13 09:14:31 15° 196° (SSW) 09:17:42 437.500
Cosmos 2499 05 Aug 09:12:47 09:19:37 38° 284° (WNW) 09:26:50 435.465 / 435.565
CINEMA 3 05 Aug 09:26:57 09:29:46 16° 93° (E) 09:32:52 145.822/145.860
AIST 2 05 Aug 09:29:28 09:33:19 36° 58° (ENE) 09:37:08 435.215
COMPASS 1 05 Aug 09:33:38 09:36:27 18° 94° (E) 09:39:22 437.405
BEESAT 3 05 Aug 09:37:35 09:40:40 21° 249° (WSW) 09:43:37 437.485
M-CUBED/EXP-1 PRIME 05 Aug 09:40:35 09:43:52 24° 66° (ENE) 09:47:26 437.505
DOVE 4 05 Aug 09:49:21 09:54:10 69° 101° (ESE) 09:59:15 437.250
SEEDS 05 Aug 09:55:18 09:59:23 45° 99° (E) 10:03:26 437.485
AUBIESAT-1 05 Aug 10:04:48 10:08:36 39° 69° (ENE) 10:12:44 437.475
CUTE 1.7 + AOD 2 05 Aug 10:05:31 10:09:49 81° 103° (ESE) 10:14:04 437.475
AAUSAT CUBESAT 2 05 Aug 10:10:00 10:14:00 43° 99° (E) 10:17:58 437.432
CANX-2 05 Aug 10:14:41 10:18:57 67° 283° (WNW) 10:23:10 2200.000
PCSat 05 Aug 10:15:55 10:19:20 16° 308° (NW) 10:22:32 145.827
HO-68 05 Aug 10:20:16 10:27:29 87° 286° (WNW) 10:34:42 435.675
FUNcube-1 05 Aug 10:23:43 10:26:24 16° 93° (E) 10:29:17 145.935
GOMX 1 05 Aug 10:23:49 10:27:58 30° 286° (WNW) 10:32:16 467.674
Oscar 11 05 Aug 10:27:31 10:31:16 29° 96° (E) 10:35:04 145.826/435.025
YUBILEINY 05 Aug 10:28:01 10:31:19 13° 65° (ENE) 10:35:26 435.215
UWE-3 05 Aug 10:37:17 10:41:27 32° 97° (E) 10:45:41 435.000/436.395/437.385
BRITE-PL 05 Aug 10:38:32 10:40:30 12° 289° (WNW) 10:42:13 437.365/2234.400
UNISAT 6 05 Aug 10:38:57 10:42:14 22° 71° (ENE) 10:45:43 437.425
O/OREOS (USA 219) 05 Aug 10:43:13 10:45:43 15° 60° (ENE) 10:48:26 437.305
DELFI C3 05 Aug 10:58:39 11:02:31 44° 99° (E) 11:06:22 145.870
Cosmos 2491 05 Aug 10:59:59 11:01:48 11° 82° (E) 11:04:32 435.465 / 435.565
CUBEBUG 2 05 Aug 11:02:11 11:06:56 86° 102° (ESE) 11:11:42 437.445
CINEMA 3 05 Aug 11:02:32 11:07:07 42° 285° (WNW) 11:11:47 145.822/145.860
DX 1 05 Aug 11:07:08 11:08:06 11° 92° (E) 11:09:22 434.975-435.025
COMPASS 1 05 Aug 11:08:33 11:12:07 26° 287° (WNW) 11:15:35 437.405
AIST 2 05 Aug 11:09:22 11:11:35 14° 250° (WSW) 11:13:36 435.215
M-CUBED/EXP-1 PRIME 05 Aug 11:15:24 11:18:36 22° 262° (W) 11:21:54 437.505
POLYITAN 1 05 Aug 11:16:27 11:19:31 21° 72° (ENE) 11:22:43 437.675
